Location: Unspecified
(0.0000°N, 0.0000°E)
Time: 10:40:01
(UTC+02:00)

Ariane H10 - Visible Passes

Search period start: 25 April 2017 00:00
Search period end: 05 May 2017 00:00
Orbit: 413 x 35049 km, 4.6° (Epoch: 23 April)

Date Brightness Start Highest point End Pass type
(mag) Time Alt. Az. Time Alt. Az. Time Alt. Az.
25 Apr 6.7 01:22:29 10° W 02:12:23 72° ESE 11:09:24 10° E visible
25 Apr 4.2 21:54:44 10° W 22:00:02 83° N 07:27:57 10° E visible
27 Apr 5.1 05:58:07 29° W 07:14:47 42° W 15:05:37 10° ENE visible
28 Apr 7.0 01:51:15 10° W 02:40:22 82° SE 11:38:05 10° E visible
28 Apr 4.7 22:22:39 10° W 22:29:15 87° N 08:00:46 10° E visible
30 Apr 8.8 06:26:02 20° W 07:43:22 33° W 11:43:34 10° W visible
01 May 7.1 02:20:17 10° W 03:30:56 84° S 12:06:28 10° E visible
01 May 5.2 22:50:33 10° W 22:58:56 89° S 08:32:07 10° E visible
03 May 8.9 06:53:53 12° W 08:11:22 24° W 10:57:09 10° W visible
04 May 6.7 03:36:05 72° WSW 04:37:37 80° SW 12:34:38 10° E visible
